CW8539 Weather Reports


time (UTC)temp
C
wind
direction
speed
KPH
gust
KPH
rain 1hr
cm
rain 24hr
cm
rain mn
cm
humidity
%
barometer
mb
20260507051526 13 117 8.0 16.1 0.00 0.00 0.00 91 1019.9
20260507050013 13 103 6.4 12.9 0.00 0.00 0.00 91 1019.9
20260507044519 13 104 6.4 12.9 0.00 0.00 0.00 91 1019.7
20260507043024 13 75 8.0 16.1 0.00 0.00 0.00 90 1019.6
20260507041529 14 107 8.0 19.3 0.00 0.00 0.00 89 1019.0
20260507040028 15 74 4.8 16.1 0.00 0.00 0.00 89 1018.9
20260507034534 15 101 8.0 17.7 0.00 0.00 0.00 88 1018.8
20260507033020 15 123 11.3 19.3 0.00 0.00 0.00 87 1018.6
20260507031522 15 67 6.4 16.1 0.00 0.00 0.00 86 1018.4
20260507030028 16 96 4.8 12.9 0.00 0.00 0.00 83 1018.2
20260507024529 17 70 3.2 9.7 0.00 0.00 0.00 80 1018.0
20260507023022 17 46 4.8 8.0 0.00 0.00 0.00 78 1017.9
20260507021530 18 51 1.6 4.8 0.00 0.00 0.00 78 1017.8
20260507020038 19 219 0.0 6.4 0.00 0.00 0.00 75 1017.7
20260507014528 19 234 3.2 8.0 0.00 0.00 0.00 75 1017.7
20260507013045 19 279 1.6 8.0 0.00 0.00 0.00 75 1017.8
20260507011522 19 220 3.2 12.9 0.00 0.00 0.00 76 1017.7
20260507010010 19 231 3.2 12.9 0.00 0.00 0.00 75 1017.7
20260507004506 19 217 6.4 9.7 0.00 0.00 0.00 76 1017.6
20260507003012 18 225 6.4 14.5 0.00 0.00 0.00 77 1017.7
20260507001511 18 234 11.3 17.7 0.00 0.00 0.00 78 1017.8
20260507000010 19 225 8.0 14.5 0.00 0.00 0.00 76 1017.7
20260506234504 18 223 9.7 17.7 0.00 0.00 0.00 76 1017.8
20260506233008 18 240 9.7 16.1 0.00 0.00 0.00 76 1017.9
20260506231512 20 240 8.0 17.7 0.00 0.00 0.00 74 1017.9
20260506230014 19 236 14.5 19.3 0.00 0.00 0.00 73 1018.2
20260506224517 19 246 8.0 19.3 0.00 0.00 0.00 74 1018.4
20260506223010 20 216 9.7 19.3 0.00 0.00 0.00 72 1018.5
20260506221512 20 221 8.0 17.7 0.00 0.00 0.00 73 1018.6
20260506220023 20 281 11.3 20.9 0.00 0.00 0.00 71 1018.9
20260506214516 20 223 9.7 20.9 0.00 0.00 0.00 72 1019.1
20260506213015 19 209 9.7 19.3 0.00 0.00 0.00 73 1019.3
20260506211514 19 248 9.7 17.7 0.00 0.00 0.00 74 1019.4
20260506210025 18 228 12.9 19.3 0.00 0.00 0.00 74 1019.4
20260506204520 19 217 11.3 17.7 0.00 0.00 0.00 71 1019.6
20260506203020 18 245 9.7 22.5 0.00 0.00 0.00 73 1019.8
20260506201522 18 238 11.3 22.5 0.00 0.00 0.00 71 1019.9
20260506200030 18 222 11.3 19.3 0.00 0.00 0.00 75 1019.9
20260506194515 17 202 14.5 20.9 0.00 0.00 0.00 74 1020.0
20260506193019 17 210 11.3 19.3 0.00 0.00 0.00 75 1020.1
20260506191522 17 229 9.7 20.9 0.00 0.00 0.00 76 1020.4
20260506190021 16 233 11.3 17.7 0.00 0.00 0.00 76 1020.4
20260506184520 16 231 12.9 19.3 0.00 0.00 0.00 76 1020.5
20260506183024 15 243 14.5 22.5 0.00 0.00 0.00 81 1020.5
20260506181505 15 230 11.3 22.5 0.00 0.00 0.00 80 1020.7
20260506180014 15 242 11.3 24.1 0.00 0.00 0.00 82 1020.7
20260506174512 15 234 12.9 22.5 0.00 0.00 0.00 81 1020.7
20260506173021 15 232 11.3 19.3 0.00 0.00 0.00 81 1020.7
20260506171522 15 264 9.7 17.7 0.00 0.00 0.00 83 1020.7
20260506170004 16 239 11.3 16.1 0.00 0.00 0.00 84 1020.7
20260506164508 15 240 6.4 11.3 0.00 0.00 0.00 83 1020.7
20260506163013 16 209 4.8 9.7 0.00 0.00 0.00 83 1020.7
20260506161519 15 199 4.8 11.3 0.00 0.00 0.00 83 1020.8
20260506160025 15 210 3.2 8.0 0.00 0.00 0.00 84 1020.9
20260506154528 15 192 1.6 6.4 0.00 0.00 0.00 83 1020.8
20260506153010 15 138 1.6 8.0 0.00 0.00 0.00 84 1020.7
20260506151516 15 147 3.2 6.4 0.00 0.00 0.00 83 1020.7
20260506150022 15 152 3.2 6.4 0.00 0.00 0.00 81 1020.8
20260506144531 15 340 0.0 3.2 0.00 0.00 0.00 87 1020.8
20260506143034 13 294 0.0 4.8 0.00 0.00 0.00 89 1020.8
20260506141511 13 309 0.0 0.0 0.00 0.00 0.00 91 1020.8
20260506140028 13 317 0.0 0.0 0.00 0.00 0.00 91 1020.5
20260506134520 12 306 0.0 0.0 0.00 0.00 0.00 91 1020.3
20260506133024 12 352 0.0 0.0 0.00 0.00 0.00 91 1020.1
20260506131513 12 355 0.0 0.0 0.00 0.00 0.00 91 1019.9
20260506130020 12 46 0.0 0.0 0.00 0.00 0.00 91 1019.8
20260506124527 12 331 0.0 0.0 0.00 0.00 0.00 91 1019.8
20260506123031 12 331 0.0 0.0 0.00 0.00 0.00 91 1019.7
20260506121527 12 325 0.0 1.6 0.00 0.00 0.00 91 1019.6
20260506120020 12 330 0.0 0.0 0.00 0.00 0.00 91 1019.6
20260506114529 12 317 0.0 0.0 0.00 0.00 0.00 91 1019.5
20260506113022 12 327 0.0 0.0 0.00 0.00 0.00 91 1019.6
20260506111526 12 340 0.0 0.0 0.00 0.00 0.00 92 1019.5
20260506110027 12 333 0.0 0.0 0.00 0.00 0.00 92 1019.4
20260506104518 12 333 0.0 0.0 0.00 0.00 0.00 92 1019.4
20260506103028 12 317 0.0 0.0 0.00 0.00 0.00 92 1019.3
20260506101524 12 348 0.0 0.0 0.00 0.00 0.00 92 1019.3
20260506100008 12 348 0.0 3.2 0.00 0.00 0.00 92 1019.4
20260506094533 12 352 1.6 4.8 0.00 0.00 0.00 92 1019.4
20260506093003 12 350 0.0 4.8 0.00 0.00 0.00 92 1019.6
20260506091504 12 360 0.0 0.0 0.00 0.00 0.00 91 1019.4
20260506090008 12 349 0.0 0.0 0.00 0.00 0.00 91 1019.4
20260506084510 12 348 0.0 0.0 0.00 0.00 0.00 90 1019.4
20260506083018 12 325 0.0 0.0 0.00 0.00 0.00 90 1019.4
20260506081504 12 325 0.0 0.0 0.00 0.00 0.00 88 1019.3
20260506073012 13 264 0.0 0.0 0.00 0.00 0.00 87 1019.0
20260506071519 13 264 0.0 0.0 0.00 0.00 0.00 87 1019.0
20260506061521 14 168 0.0 0.0 0.00 0.00 0.00 88 1018.6